NNS 30240-36

operational
NORAD ID: 15935 Int'l Des: 1985-066 Owner: NAVAIR Country: US
LEORETROGRADE

About NNS 30240-36

Description loading...

Live Position

Loading 3D Globe...

Upcoming Passes

Altitude History

Altitude vs Time

uPlot chart will show altitude changes over time

Two-Line Element Set

1 15935U 85066A 26102.98548414 .00000087 00000-0 13791-3 0 9991
2 15935 90.1521 101.7521 0169762 101.4729 311.5084 13.36101239980722
Epoch: Apr 12, 2026 • Age: 9 hours

Current Status

Altitude 1214.1 km
Velocity 7.21 km/s
Sub-Earth Point -29.10°S, 136.75°E
Launch Date Aug 3, 1985
Age 40.6 years
Type other

Technical Details

Classification Payload
Mass 66.00 kg
Dry Mass 66.00 kg
Total Mass 66.00 kg
Length 0.30 m
Diameter 0.50 m
Span 30.00 m
Shape Oct Cyl + 4 Pan + Ant
Manufacturer RCA
Bus Type Transit 5
Phase Status In Orbit
Owner/State NAVAIR/US

Large Constellations

Loading constellations...